User: anonymous   Login
Location: Barnston
(51.8500°N, 0.4000°E)
Time: 11:53:20
(UTC+00:00)
Language:

Cosmos 2322 - Orbit

View from above orbital plane
View from above orbital plane
View from above satellite
View from above satellite

Ground track
Ground track

The orbit data is extracted from the following two-line orbital elements,

1 23704U 95058A   24056.94025169 -.00000183  00000-0 -71979-4 0  9997
2 23704  70.9876 319.1769 0010424 337.1764  22.8893 14.13583539461086
Epoch (UTC): 25 February 2024 22:33:57
Eccentricity: 0.0010424
inclination: 70.9876°
perigee height: 839 km
apogee height: 854 km
right ascension of ascending node: 319.1769°
argument of perigee: 337.1764°
revolutions per day: 14.13583539
mean anomaly at epoch: 22.8893°
orbit number at epoch: 46108

The dashed part of the orbit path shows where the satellite is in the earth's shadow,  

DLR